Temp
62 62 62 61 62 62 62 61 61 60 60 60 59 60 60 61 58 59 60 60 60 60 60 60 60 59 59 59 59 58 58 58 58 59 58 58 58 59 58 58 57 57
62 62 61 61 61 61 61 62 61 60 59 59 60 60 60 59 59 59 59 60 60 60 61 60 60 60 60 59 59 59 59 59 59 60 59 59 59 59 59 59 58 57
62 61 61 60 61 61 61 61 60 60 60 60 60 59 59 58 59 59 59 60 60 60 60 60 61 61 61 61 61 60 60 59 59 59 59 59 59 58 59 59 58 57
61 62 61 61 61 61 61 60 59 60 59 58 59 59 59 59 58 59 59 56 59 60 60 60 61 62 62 62 61 60 60 60 60 60 59 59 59 58 58 58 57 56
61 61 61 62 62 61 60 59 59 60 60 60 59 58 57 58 58 58 58 58 59 59 59 60 61 62 61 61 61 60 60 59 60 60 59 58 58 58 58 57 56 56
60 61 61 61 61 60 60 60 60 60 60 59 59 57 58 58 58 58 58 57 57 59 60 61 61 61 61 61 61 60 60 59 59 59 58 58 58 58 58 57 56 54
59 59 59 60 59 60 59 59 59 58 59 59 57 58 57 56 57 57 57 57 58 57 59 60 60 60 61 60 60 59 59 59 58 58 58 57 56 56 55 56 55 55
58 57 58 58 58 58 58 59 59 59 59 56 56 58 56 57 57 57 56 57 57 58 58 59 60 61 60 59 58 58 58 58 57 56 56 57 56 56 54 53 53 53
55 55 55 55 56 57 57 57 58 57 56 56 55 55 54 56 57 56 57 56 57 56 57 58 59 59 59 59 58 58 57 56 56 55 55 54 52 51 51 51 52 53
52 52 51 52 53 54 55 55 55 54 53 54 55 55 54 54 55 57 56 56 56 56 56 57 58 58 58 58 59 58 58 57 55 55 56 56 55 55 53 50 49 46
49 48 50 51 52 52 52 52 51 52 52 53 53 53 54 53 52 53 55 55 56 56 56 57 57 58 58 57 57 57 58 58 56 55 55 55 55 53 49 48 48 49
45 44 47 48 49 48 49 49 48 47 50 49 50 53 52 51 52 52 53 54 55 56 56 57 57 56 57 57 57 56 56 57 56 55 54 54 53 52 51 48 48 47
43 45 45 45 45 46 44 44 45 45 46 48 46 49 50 49 49 51 51 53 54 55 55 55 56 56 56 56 55 54 53 52 50 49 48 48 48 48 46 46 46 45
43 43 44 45 45 44 45 44 45 45 46 46 45 47 48 49 49 50 51 51 53 54 54 54 55 54 54 53 53 53 52 51 52 50 50 48 44 44 42 42 42 42
41 42 42 42 42 43 43 43 43 44 42 43 43 45 47 48 49 50 50 51 51 52 53 53 53 53 52 52 52 52 51 50 50 49 47 45 42 39 38 39 40 40
41 42 43 43 43 43 43 40 40 39 39 40 41 41 42 43 45 47 48 49 49 49 48 48 49 49 47 45 46 51 49 48 45 43 41 40 40 39 37 38 38 38
41 42 41 42 43 41 40 40 40 39 38 39 39 39 40 40 41 45 43 45 46 46 43 44 45 46 44 44 45 46 48 48 46 42 41 40 39 39 38 36 36 36
42 41 40 40 39 40 39 39 38 39 40 39 38 39 38 38 39 42 42 41 43 42 43 43 44 43 45 44 44 44 44 43 41 40 39 39 38 38 37 36 36 36
40 40 40 38 38 38 37 37 38 38 38 38 39 38 36 39 40 39 40 38 40 41 40 39 39 42 43 43 43 43 43 41 38 38 38 38 38 38 37 36 36 35
39 39 39 38 37 36 36 36 37 39 38 38 37 36 38 38 36 38 37 37 38 39 38 38 38 39 42 41 41 42 42 41 39 38 38 38 38 38 37 36 36 35
39 39 39 38 37 36 36 36 37 36 36 36 37 37 38 38 38 37 37 36 36 36 37 37 38 39 41 41 41 42 42 40 38 38 37 37 37 37 37 36 36 36
38 38 37 37 37 37 36 36 36 36 36 35 35 35 35 35 35 36 36 36 36 36 36 36 35 39 40 40 41 42 41 38 37 37 36 36 36 36 36 36 36 36
38 38 37 37 36 36 37 36 36 35 34 35 35 35 36 36 36 35 35 35 35 36 37 36 35 37 39 40 41 42 39 36 37 36 36 36 35 35 35 35 36 36
38 37 37 36 36 36 36 36 36 35 35 35 36 35 35 35 35 34 34 35 35 35 36 35 35 35 38 39 40 41 38 36 36 36 35 35 34 34 35 35 34 34
37 37 37 36 35 35 35 35 35 35 34 34 35 35 35 34 35 35 34 34 34 34 34 35 35 34 37 39 40 40 38 36 36 35 34 34 33 33 33 33 33 33
37 36 36 36 36 35 35 35 35 34 34 35 35 35 35 35 35 35 34 34 34 34 35 35 35 34 35 39 39 39 38 36 36 36 35 34 33 33 32 32 33 32
MSLP
1013.55 1013.79 1014.03 1014.23 1014.32 1014.35 1014.55 1014.88 1014.99 1015.28 1015.43 1015.59 1015.76 1015.55 1015.76 1015.67 1016.16 1016.32 1016.43 1016.64 1016.76 1016.96 1017.11 1017.35 1017.55 1017.76 1017.91 1018.11 1018.28 1018.52 1018.67 1018.67 1018.79 1018.91 1019.08 1019.28 1019.40 1019.52 1019.67 1019.79 1019.99 1020.08
1012.99 1013.20 1013.43 1013.72 1013.91 1014.03 1014.11 1014.23 1014.47 1014.79 1014.91 1015.08 1015.03 1015.11 1015.20 1015.47 1015.64 1015.84 1015.99 1016.23 1016.40 1016.52 1016.67 1016.96 1017.16 1017.32 1017.52 1017.72 1017.88 1018.16 1018.28 1018.35 1018.43 1018.52 1018.72 1018.88 1018.91 1019.08 1019.03 1019.20 1019.40 1019.52
1012.59 1012.84 1013.08 1013.28 1013.35 1013.40 1013.55 1013.76 1014.03 1014.20 1014.32 1014.28 1014.52 1014.64 1014.72 1015.03 1015.23 1015.47 1015.59 1015.76 1015.99 1016.11 1016.35 1016.52 1016.72 1016.84 1017.03 1017.20 1017.43 1017.67 1017.76 1017.84 1017.96 1018.03 1018.23 1018.32 1018.43 1018.59 1018.55 1018.72 1018.88 1019.03
1012.03 1012.20 1012.43 1012.64 1012.76 1012.84 1012.99 1013.47 1013.67 1013.72 1013.79 1013.99 1013.91 1014.03 1014.40 1014.55 1014.84 1015.03 1015.20 1015.40 1015.59 1015.76 1015.91 1016.16 1016.23 1016.40 1016.55 1016.72 1016.91 1017.08 1017.16 1017.23 1017.28 1017.52 1017.67 1017.79 1017.88 1017.99 1018.11 1018.28 1018.28 1018.28
1011.43 1011.67 1011.84 1011.96 1012.08 1012.28 1012.67 1013.08 1013.11 1013.11 1013.28 1013.23 1013.52 1013.79 1014.08 1014.28 1014.52 1014.67 1014.84 1015.08 1015.23 1015.40 1015.59 1015.72 1015.79 1015.96 1016.11 1016.28 1016.43 1016.55 1016.64 1016.67 1016.76 1016.96 1017.08 1017.16 1017.20 1017.47 1017.64 1017.88 1017.91 1017.91
1011.11 1011.23 1011.40 1011.59 1011.76 1012.08 1012.40 1012.47 1012.43 1012.64 1012.84 1013.08 1013.11 1013.52 1013.67 1013.79 1014.16 1014.28 1014.47 1014.72 1014.88 1014.99 1015.11 1015.20 1015.35 1015.43 1015.55 1015.72 1015.91 1015.96 1016.08 1016.20 1016.32 1016.55 1016.59 1016.67 1016.79 1016.91 1016.91 1017.03 1017.32 1017.72
1010.72 1010.96 1011.16 1011.32 1011.55 1011.72 1011.91 1011.99 1012.03 1012.23 1012.40 1012.52 1012.96 1013.11 1013.20 1013.64 1013.76 1013.88 1014.11 1014.28 1014.43 1014.59 1014.64 1014.76 1014.88 1014.96 1015.03 1015.20 1015.32 1015.40 1015.43 1015.55 1015.79 1016.03 1016.11 1016.20 1016.35 1016.47 1016.55 1016.59 1016.67 1016.72
1010.35 1010.59 1010.79 1011.03 1011.23 1011.40 1011.52 1011.59 1011.72 1011.88 1011.99 1012.40 1012.55 1012.55 1012.91 1013.16 1013.32 1013.43 1013.64 1013.84 1013.99 1014.11 1014.20 1014.23 1014.32 1014.40 1014.52 1014.67 1014.79 1014.91 1015.03 1015.16 1015.28 1015.47 1015.59 1015.59 1015.67 1015.64 1015.91 1016.32 1016.55 1016.52
1010.16 1010.35 1010.52 1010.72 1010.91 1010.99 1011.16 1011.20 1011.28 1011.47 1011.72 1011.99 1012.16 1012.32 1012.55 1012.64 1012.72 1012.96 1013.16 1013.35 1013.47 1013.55 1013.67 1013.79 1013.88 1013.99 1014.11 1014.23 1014.28 1014.32 1014.43 1014.72 1014.88 1015.03 1015.11 1015.23 1015.40 1015.55 1015.84 1015.99 1016.03 1016.03
1009.99 1010.11 1010.35 1010.47 1010.55 1010.59 1010.67 1010.79 1010.99 1011.20 1011.43 1011.59 1011.67 1011.91 1012.08 1012.16 1012.28 1012.43 1012.67 1012.84 1012.96 1013.11 1013.28 1013.40 1013.55 1013.64 1013.76 1013.84 1013.88 1013.96 1014.03 1014.23 1014.52 1014.67 1014.79 1014.91 1015.08 1015.20 1015.32 1015.64 1015.96 1016.43
1009.76 1009.96 1010.03 1010.11 1010.11 1010.28 1010.40 1010.55 1010.76 1010.88 1011.08 1011.11 1011.32 1011.52 1011.59 1011.84 1012.08 1012.20 1012.35 1012.52 1012.67 1012.79 1012.96 1013.08 1013.16 1013.23 1013.35 1013.43 1013.52 1013.64 1013.76 1013.76 1013.91 1014.16 1014.20 1014.28 1014.43 1014.72 1015.16 1015.76 1016.08 1016.03
1009.72 1009.88 1009.84 1009.84 1009.99 1010.16 1010.23 1010.40 1010.59 1010.79 1010.88 1011.03 1011.16 1011.20 1011.43 1011.64 1011.76 1012.03 1012.16 1012.20 1012.32 1012.40 1012.52 1012.64 1012.76 1012.88 1012.96 1013.03 1013.20 1013.32 1013.40 1013.43 1013.47 1013.64 1013.91 1014.20 1014.43 1014.55 1014.67 1015.03 1015.64 1016.23
1009.88 1009.91 1009.99 1010.08 1010.11 1010.20 1010.43 1010.59 1010.67 1010.84 1010.96 1010.96 1011.16 1011.20 1011.28 1011.43 1011.67 1011.79 1011.91 1011.99 1012.03 1012.11 1012.20 1012.32 1012.43 1012.55 1012.67 1012.79 1012.88 1013.08 1013.28 1013.52 1013.72 1013.91 1014.11 1014.28 1014.47 1014.72 1015.11 1015.35 1015.43 1015.88
1009.99 1010.03 1010.03 1010.03 1010.11 1010.20 1010.28 1010.35 1010.52 1010.67 1010.84 1010.99 1011.20 1011.23 1011.28 1011.32 1011.40 1011.55 1011.64 1011.79 1011.79 1011.88 1011.91 1012.03 1012.16 1012.32 1012.47 1012.64 1012.76 1012.84 1012.99 1013.20 1013.32 1013.47 1013.64 1013.91 1014.28 1014.72 1014.99 1015.35 1015.72 1015.84
1010.03 1009.99 1009.91 1009.88 1009.91 1009.96 1010.03 1010.11 1010.23 1010.35 1010.55 1010.76 1010.91 1010.99 1011.08 1011.11 1011.20 1011.28 1011.43 1011.59 1011.67 1011.72 1011.76 1011.88 1011.99 1012.03 1012.20 1012.35 1012.55 1012.72 1012.91 1013.16 1013.35 1013.55 1013.67 1013.88 1014.28 1014.64 1015.08 1015.32 1015.64 1015.91
1009.88 1009.84 1009.76 1009.72 1009.79 1009.84 1009.96 1010.03 1010.16 1010.28 1010.43 1010.52 1010.59 1010.72 1010.84 1010.91 1010.99 1011.08 1011.16 1011.28 1011.43 1011.59 1011.76 1011.88 1011.99 1012.08 1012.16 1012.20 1012.32 1012.43 1012.67 1012.96 1013.32 1013.64 1013.96 1014.16 1014.11 1014.47 1014.99 1015.35 1015.64 1015.96
1009.67 1009.67 1009.72 1009.67 1009.72 1009.84 1009.91 1009.99 1010.08 1010.23 1010.35 1010.40 1010.47 1010.55 1010.64 1010.76 1010.84 1010.91 1011.03 1011.16 1011.28 1011.47 1011.67 1011.88 1011.99 1012.03 1012.11 1012.20 1012.35 1012.47 1012.64 1012.79 1012.96 1013.28 1013.67 1013.99 1014.28 1014.55 1014.99 1015.72 1016.08 1016.23
1009.28 1009.43 1009.52 1009.59 1009.76 1009.79 1009.88 1009.99 1010.03 1010.11 1010.20 1010.28 1010.35 1010.43 1010.55 1010.79 1010.72 1010.79 1010.91 1010.99 1011.20 1011.35 1011.47 1011.64 1011.72 1011.79 1011.96 1012.11 1012.35 1012.64 1012.84 1012.96 1013.23 1013.43 1013.79 1014.08 1014.35 1014.64 1015.20 1015.72 1015.99 1016.28
1009.08 1009.16 1009.28 1009.43 1009.59 1009.72 1009.88 1009.99 1010.03 1010.08 1010.16 1010.28 1010.28 1010.40 1010.59 1010.59 1010.55 1010.72 1010.76 1011.03 1011.16 1011.28 1011.40 1011.64 1011.79 1012.08 1012.16 1012.23 1012.35 1012.52 1012.84 1013.16 1013.47 1013.72 1013.84 1014.03 1014.32 1014.59 1014.99 1015.43 1015.84 1016.28
1008.96 1009.03 1009.16 1009.35 1009.59 1009.76 1009.84 1009.88 1009.91 1009.91 1010.03 1010.23 1010.32 1010.55 1010.47 1010.47 1010.64 1010.67 1010.88 1011.08 1011.23 1011.35 1011.47 1011.76 1011.96 1012.16 1012.23 1012.28 1012.35 1012.52 1012.76 1012.99 1013.28 1013.47 1013.72 1013.88 1014.08 1014.40 1014.76 1015.16 1015.52 1015.88
1008.84 1008.99 1009.11 1009.35 1009.55 1009.67 1009.76 1009.76 1009.84 1009.96 1010.08 1010.20 1010.32 1010.35 1010.35 1010.35 1010.47 1010.59 1010.91 1011.16 1011.40 1011.55 1011.67 1011.79 1011.99 1012.16 1012.20 1012.28 1012.40 1012.55 1012.79 1013.03 1013.35 1013.55 1013.64 1013.79 1014.11 1014.40 1014.59 1014.79 1015.16 1015.40
1008.64 1008.91 1009.16 1009.35 1009.47 1009.59 1009.67 1009.67 1009.76 1009.88 1009.84 1010.28 1010.43 1010.59 1010.72 1010.79 1010.96 1011.03 1011.03 1011.23 1011.52 1011.64 1011.72 1011.72 1012.03 1012.08 1012.08 1012.20 1012.35 1012.55 1012.84 1013.11 1013.28 1013.32 1013.52 1013.79 1014.11 1014.35 1014.55 1014.72 1014.88 1015.08
1008.40 1008.76 1009.03 1009.23 1009.40 1009.47 1009.47 1009.55 1009.64 1009.79 1010.03 1010.40 1010.32 1010.55 1010.55 1010.72 1010.67 1010.88 1011.11 1011.28 1011.47 1011.59 1011.55 1011.72 1011.99 1012.16 1012.11 1012.20 1012.28 1012.43 1012.72 1012.99 1013.16 1013.32 1013.59 1013.84 1014.11 1014.40 1014.55 1014.72 1014.84 1014.99
1008.11 1008.40 1008.72 1009.03 1009.23 1009.28 1009.35 1009.47 1009.59 1009.76 1009.88 1010.23 1010.08 1010.35 1010.43 1010.52 1010.72 1010.96 1011.28 1011.35 1011.40 1011.52 1011.72 1011.67 1011.88 1011.99 1011.91 1011.91 1012.08 1012.32 1012.64 1012.96 1013.28 1013.47 1013.84 1014.08 1014.40 1014.59 1014.76 1014.91 1014.99 1014.99
1007.84 1008.11 1008.40 1008.72 1008.96 1009.20 1009.35 1009.40 1009.52 1009.55 1009.88 1010.23 1010.23 1010.28 1010.28 1010.64 1010.76 1010.79 1011.11 1011.32 1011.43 1011.43 1011.64 1011.55 1011.67 1011.84 1011.91 1011.88 1011.99 1012.32 1012.76 1013.20 1013.47 1013.72 1013.99 1014.35 1014.64 1014.88 1015.08 1015.20 1015.32 1015.28
1007.40 1007.67 1007.99 1008.23 1008.52 1008.91 1009.23 1009.32 1009.52 1009.72 1009.84 1009.99 1010.20 1010.20 1010.23 1010.47 1010.64 1010.72 1010.76 1011.08 1011.35 1011.40 1011.52 1011.52 1011.52 1011.67 1011.84 1011.76 1011.88 1012.16 1012.52 1012.96 1013.35 1013.55 1013.88 1014.28 1014.59 1014.79 1015.08 1015.28 1015.28 1015.32
Wind_Speed
14 12 13 12 13 12 12 12 11 11 10 9 10 11 11 10 7 9 10 10 11 11 10 10 10 10 9 9 9 8 8 10 10 9 10 10 11 12 12 12 12 11
15 14 12 11 11 10 11 11 11 10 11 11 11 10 9 8 8 9 10 10 10 11 11 10 10 10 10 10 9 9 10 9 11 9 10 12 11 11 13 14 14 12
14 13 14 13 14 14 14 11 10 10 11 12 10 10 10 7 8 8 9 10 10 10 10 10 10 11 11 11 10 10 11 11 12 10 10 12 11 11 12 12 11 13
14 14 14 14 14 14 13 10 10 11 10 9 12 10 9 8 8 9 9 9 9 9 9 10 11 10 11 11 11 11 11 12 11 10 11 10 11 11 12 10 11 11
15 14 14 14 14 13 10 10 12 12 12 13 9 8 7 8 8 8 9 8 9 9 8 10 10 11 10 10 10 10 10 11 11 11 11 12 11 11 10 10 11 13
11 12 12 13 12 11 11 12 13 12 12 10 11 6 9 9 8 9 8 8 8 9 10 10 10 11 11 11 10 11 11 10 9 10 11 11 10 10 11 12 13 11
12 11 12 11 11 11 11 12 12 11 10 10 5 9 8 7 9 9 9 9 9 10 11 10 10 10 10 10 10 11 12 12 11 12 13 12 10 10 10 11 13 14
11 8 10 9 10 11 11 12 11 11 10 7 9 9 7 8 9 9 9 9 10 11 11 11 11 12 11 10 10 10 10 10 10 11 11 11 12 14 13 10 9 11
8 8 8 8 10 10 11 11 11 9 7 9 9 8 7 9 10 10 10 10 10 11 11 11 12 11 11 11 12 12 11 8 9 10 11 10 9 7 6 6 9 12
9 8 8 8 10 10 11 10 9 7 7 8 9 8 10 9 9 10 10 10 11 11 10 10 10 10 10 11 12 12 13 12 10 10 10 11 11 11 12 12 12 7
8 7 9 10 10 8 9 8 8 8 8 10 9 9 9 8 8 7 9 9 10 10 10 10 10 10 10 10 9 9 11 12 11 11 13 13 12 9 5 4 5 9
8 7 9 9 9 8 8 7 7 6 6 6 7 9 7 7 8 7 8 9 9 9 9 10 9 10 11 11 11 11 11 11 12 12 11 11 10 9 9 9 9 8
8 8 7 7 7 7 5 4 5 5 5 6 5 6 7 7 6 7 7 8 9 8 9 9 9 9 10 10 9 8 7 6 5 5 4 4 4 4 3 4 6 6
7 5 6 6 5 5 5 5 5 5 6 5 4 6 6 6 7 8 7 7 8 8 8 8 8 8 8 8 8 9 9 9 9 8 8 7 5 2 3 3 4 5
5 5 4 5 5 5 5 5 5 5 5 5 5 5 6 6 6 7 7 7 6 6 7 6 8 8 7 8 8 8 7 6 5 5 7 7 5 4 4 4 5 5
6 5 6 5 5 5 4 4 4 4 4 4 4 4 5 5 5 5 6 6 6 6 5 4 5 4 6 10 9 8 6 5 4 3 3 4 5 5 4 4 4 4
6 6 5 6 5 4 4 4 4 3 3 3 3 3 3 4 4 5 5 5 5 5 4 4 4 3 5 6 8 10 7 6 7 5 5 5 4 4 5 5 4 4
6 6 6 5 5 5 5 4 4 3 3 4 3 3 4 3 4 5 5 4 5 4 5 5 5 7 9 7 6 5 4 3 3 5 5 5 4 5 5 6 6 6
6 6 6 5 5 4 4 4 4 5 5 4 5 4 4 5 5 4 5 4 4 4 4 4 4 3 4 5 7 8 8 6 3 4 5 5 5 6 7 7 7 7
6 6 6 5 4 4 4 5 5 6 5 5 4 4 5 4 4 4 3 3 4 4 4 3 3 4 5 7 7 8 10 8 6 6 6 6 7 7 7 8 9 9
7 7 6 6 5 5 5 5 5 4 5 5 5 5 5 5 5 4 4 3 3 3 3 3 4 6 7 8 9 10 10 8 5 6 6 5 6 6 8 9 9 10
8 7 6 6 7 7 7 6 5 5 6 4 3 3 2 3 2 3 4 4 4 4 4 4 3 6 8 9 10 11 12 7 6 6 6 5 6 6 7 7 8 9
8 8 7 7 7 8 8 7 6 5 4 3 4 4 4 4 5 3 3 4 4 4 4 3 3 4 7 9 11 13 9 5 5 4 5 6 6 5 6 7 7 8
8 8 8 7 6 7 6 6 5 4 5 5 5 6 5 5 4 3 3 3 4 4 4 4 4 6 9 10 12 13 8 5 4 4 4 4 4 4 4 4 6 10
8 8 8 7 7 6 5 6 6 6 4 4 4 4 4 4 4 4 3 3 3 4 6 6 5 6 8 10 11 12 8 4 5 4 5 3 4 4 3 3 4 6
9 9 9 9 9 7 6 6 5 5 5 6 4 4 5 4 5 4 5 3 3 4 4 5 5 4 6 10 12 13 12 7 5 6 6 6 5 6 5 4 5 5
Wind_Direction
214 212 214 214 218 220 220 216 218 220 222 221 222 226 221 226 206 206 213 215 217 220 220 219 218 219 220 216 214 215 217 220 222 217 216 213 219 217 218 216 212 212
213 212 214 217 222 223 225 219 219 214 221 219 223 227 225 215 211 205 212 215 215 220 218 216 216 217 216 215 212 213 220 220 225 215 219 217 221 218 222 217 215 214
213 212 213 213 218 221 221 218 215 217 219 220 220 222 222 206 212 206 211 212 214 218 217 215 216 217 217 217 213 215 219 221 225 216 218 220 218 219 223 220 219 213
213 212 212 215 218 223 219 212 216 222 222 222 221 219 213 211 204 208 211 209 214 216 215 215 219 219 218 218 215 217 218 221 222 215 217 219 218 220 223 222 223 215
211 212 214 216 219 221 216 211 219 220 219 224 225 214 208 210 204 209 210 209 211 216 213 217 219 221 218 218 215 219 218 222 218 216 218 219 216 212 220 220 221 213
217 216 216 218 219 216 215 216 221 221 221 224 224 203 213 209 203 210 208 207 208 213 216 218 218 219 217 217 214 219 220 222 219 215 221 222 222 217 216 209 206 212
216 213 217 216 219 217 217 221 225 223 223 225 208 216 210 200 208 210 207 207 209 211 216 218 218 218 215 216 217 220 220 219 216 213 217 220 218 221 218 211 211 217
217 213 214 211 214 217 219 222 224 222 222 212 212 220 196 205 210 211 207 206 209 212 215 217 218 219 216 216 220 225 227 219 216 213 219 222 214 213 204 208 217 219
213 212 204 205 211 217 220 221 224 222 207 209 213 215 204 207 212 210 209 208 211 214 214 216 218 219 216 214 216 218 220 216 212 210 215 218 218 228 238 233 219 213
213 210 201 206 211 215 218 220 217 213 201 207 212 209 211 214 211 212 210 210 215 216 216 217 217 218 218 215 216 215 217 217 211 212 215 219 222 223 216 201 207 216
216 206 207 211 216 213 219 216 213 211 206 211 210 214 216 210 216 213 214 214 217 217 216 217 217 216 220 225 228 228 226 223 219 218 220 222 223 226 216 213 231 214
217 210 215 217 216 218 219 216 217 216 216 221 210 217 213 213 211 209 211 216 216 217 215 216 214 215 219 221 222 223 226 225 223 224 222 222 221 216 197 184 195 222
214 216 214 217 217 218 215 214 216 218 217 222 210 215 212 210 211 211 214 215 219 216 217 215 215 215 220 224 226 225 227 232 234 222 218 219 218 217 235 223 196 178
215 212 210 213 210 204 203 206 204 206 214 217 204 216 215 211 208 210 215 211 219 218 218 215 216 217 217 217 213 213 212 214 210 209 208 206 197 153 135 160 184 180
209 208 199 194 189 187 190 190 192 194 196 197 198 210 210 214 211 207 210 215 220 221 222 220 218 215 208 203 207 211 209 214 220 222 206 189 161 138 137 150 166 174
202 201 200 194 191 190 188 182 181 185 176 176 188 199 207 206 206 205 202 205 210 219 226 226 223 225 227 223 216 211 194 186 175 170 180 187 169 155 162 161 157 150
195 200 191 202 203 200 204 196 193 179 176 186 201 199 198 200 182 192 195 192 198 203 209 217 228 228 221 213 211 201 199 200 199 190 169 169 175 173 169 143 131 145
193 183 188 193 180 195 191 200 196 189 205 207 197 198 207 172 177 191 194 188 188 189 192 200 209 207 194 193 206 223 211 181 158 163 166 165 165 170 152 147 158 155
183 183 186 182 187 182 182 176 184 187 195 192 204 201 164 176 199 186 196 188 174 182 200 206 216 209 194 172 166 164 151 130 133 148 159 172 171 167 160 160 157 154
188 187 190 186 174 172 167 177 184 196 192 190 176 164 180 186 176 187 180 171 178 185 199 188 183 179 170 163 162 158 152 148 157 165 172 173 176 172 165 164 164 161
194 196 196 187 183 178 179 184 188 185 180 180 176 181 182 187 185 189 189 171 161 156 160 173 189 180 170 163 162 161 159 152 158 166 170 173 172 169 169 170 171 173
190 196 195 190 190 189 191 191 185 177 178 171 153 157 153 133 131 142 162 170 168 161 157 181 197 185 171 169 165 166 160 159 167 166 166 167 167 170 168 173 174 172
183 185 189 189 186 187 193 189 182 181 167 154 148 162 160 168 172 167 164 157 158 164 169 171 172 194 179 174 173 166 158 162 159 151 159 165 170 169 170 171 176 177
179 177 182 185 186 195 188 184 181 174 171 170 165 165 171 178 151 125 128 143 155 167 167 159 187 201 184 178 172 169 159 155 154 151 148 152 151 159 162 174 183 181
173 175 177 179 188 189 183 181 179 176 159 164 163 161 159 146 140 135 129 134 159 160 166 169 182 200 192 178 173 165 152 141 146 144 148 158 152 149 136 152 179 193
174 177 178 179 182 178 186 183 169 152 160 164 165 162 152 151 147 148 151 158 154 161 183 181 177 192 194 181 173 167 159 153 159 155 175 177 173 165 164 187 198 202